TRANSAT

导读

TRANSAT卫星,是美国于1977年10月28日08:00发射的航天载荷。该卫星属于美国早期航天体系中的一颗,从时间与所属国家来看,它大概率服务于导航或早期跨大西洋通信试验领域。作为冷战时期美国航天布局的组成部分,它的发射丰富了美国低轨卫星部署经验,为后续全球卫星系统发展积累了技术数据,是美国航天发展历程中一颗具有历史意义的航天器。

Basic Information
目录编号:
10457
目录名称:
TRANSAT
国际标识:
1977-106A
轨道中心:
EARTH
卫星名称:
TRANSAT
卫星全名:
--
卫星状态:
在轨 (已飞行17791 天)
发射日期:
1977-10-28 UTC
国别 :
美国 (US)
星等 :
--
Orbit Information
数据来源 国际轨道数据 AOE轨道数据
星历时间 2026-07-14T00:01:03+0800
15小时前
查看轨道信息
2026-07-08T23:00:00+0800
5天前
查看轨道信息
半长轴 7454.171km 7454.173km
偏心率 0.0023875 0.0024196
轨道倾角 89.646° 89.647°
近地点辐角 302.214° 317.595°
升交点赤经 70.987° 71.167°
平近点角 112.458° 104.189°
近地点 1058.237km 1057.999km
远地点 1093.831km 1094.073km
周期 106.748分钟 106.748分钟
每日圈数 13.489746 13.489742
Detailed Information
使用方式:
暂无
2D Orbit Map
3D Orbit Map
Orbit Altitude Analysis Chart
Orbit Inclination Analysis Chart
Orbit Comprehensive Analysis Chart
View Comprehensive Chart